TRA5236 LKPR-EHEH

Flight info

Callsign TRA5236
Flight time 1h 7m
Altitude 36000
Route BALTU DCT DONAD DCT VARIK L602 SODRO DCT KATCE DCT WRB DCT DOMEG DCT ROTEK
Aircraft B738/M-SDE2E3FGHIRWXY/LB1

Departure

Time 2026-05-06 19:35
Airport Václav Havel Airport Prague (LKPR)

Arrival

Time 2026-05-06 20:42
Airport Eindhoven Airport (EHEH)
Time Latitude Longitude Altitude Speed Heading
2026-05-06 18:50 50.10388 14.26689 1169 ft 0 kts 34°
2026-05-06 19:19 50.10384 14.26685 1173 ft 4 kts 34°
2026-05-06 19:19 50.10363 14.26664 1171 ft 4 kts 13°
2026-05-06 19:19 50.10349 14.26668 1170 ft 4 kts 304°
2026-05-06 19:19 50.10333 14.26702 1170 ft 4 kts 304°
2026-05-06 19:20 50.10326 14.26721 1168 ft 0 kts 304°
2026-05-06 19:23 50.10336 14.26697 1170 ft 6 kts 304°
2026-05-06 19:24 50.10369 14.26623 1169 ft 11 kts 304°
2026-05-06 19:24 50.10412 14.26525 1169 ft 11 kts 304°
2026-05-06 19:24 50.10454 14.26429 1171 ft 11 kts 304°
2026-05-06 19:24 50.10495 14.26337 1173 ft 10 kts 304°
2026-05-06 19:25 50.10531 14.26243 1171 ft 10 kts 289°
2026-05-06 19:25 50.10534 14.26126 1173 ft 12 kts 258°
2026-05-06 19:25 50.10518 14.26004 1171 ft 11 kts 258°
2026-05-06 19:25 50.10537 14.25896 1173 ft 11 kts 302°
2026-05-06 19:26 50.10577 14.25801 1173 ft 11 kts 303°
2026-05-06 19:26 50.10620 14.25687 1173 ft 13 kts 300°
2026-05-06 19:26 50.10660 14.25576 1170 ft 12 kts 299°
2026-05-06 19:26 50.10697 14.25472 1167 ft 10 kts 300°
2026-05-06 19:27 50.10734 14.25374 1163 ft 11 kts 298°
2026-05-06 19:27 50.10764 14.25287 1156 ft 8 kts 299°
2026-05-06 19:27 50.10781 14.25240 1155 ft 1 kts 299°
2026-05-06 19:27 50.10787 14.25222 1156 ft 2 kts 297°
2026-05-06 19:28 50.10795 14.25195 1155 ft 4 kts 294°
2026-05-06 19:28 50.10810 14.25122 1156 ft 8 kts 279°
2026-05-06 19:28 50.10811 14.25101 1156 ft 0 kts 277°
2026-05-06 19:32 50.10812 14.25092 1156 ft 4 kts 277°
2026-05-06 19:32 50.10819 14.24987 1154 ft 15 kts 273°
2026-05-06 19:33 50.10815 14.24799 1153 ft 18 kts 263°
2026-05-06 19:33 50.10783 14.24641 1160 ft 9 kts 245°
2026-05-06 19:33 50.10756 14.24630 1160 ft 4 kts 133°
2026-05-06 19:33 50.10739 14.24666 1160 ft 5 kts 128°
2026-05-06 19:34 50.10700 14.24745 1160 ft 23 kts 127°
2026-05-06 19:34 50.10455 14.25253 1168 ft 93 kts 127°
2026-05-06 19:34 50.09940 14.26317 1197 ft 151 kts 127°
2026-05-06 19:34 50.09232 14.27793 1463 ft 180 kts 125°
2026-05-06 19:35 50.08465 14.29390 2213 ft 186 kts 124°
2026-05-06 19:35 50.07689 14.30984 3119 ft 184 kts 127°
2026-05-06 19:35 50.06912 14.32565 3918 ft 184 kts 128°
2026-05-06 19:35 50.06130 14.34172 4644 ft 188 kts 129°
2026-05-06 19:36 50.05315 14.35829 5164 ft 204 kts 130°
2026-05-06 19:36 50.04428 14.37658 5452 ft 222 kts 129°
2026-05-06 19:36 50.03452 14.39681 5680 ft 244 kts 129°
2026-05-06 19:36 50.02391 14.41869 5945 ft 265 kts 130°
2026-05-06 19:37 50.01251 14.44214 6489 ft 276 kts 130°
2026-05-06 19:37 50.00324 14.46850 7263 ft 285 kts 107°
2026-05-06 19:37 50.00291 14.49958 8022 ft 296 kts 77°
2026-05-06 19:37 50.01262 14.52793 8748 ft 303 kts 45°
2026-05-06 19:38 50.02907 14.54856 9538 ft 307 kts 33°
2026-05-06 19:38 50.04857 14.56206 10111 ft 313 kts
2026-05-06 19:38 50.07058 14.55997 10289 ft 328 kts 337°
2026-05-06 19:38 50.09022 14.54121 10488 ft 340 kts 312°
2026-05-06 19:39 50.10473 14.51170 10890 ft 348 kts 296°
2026-05-06 19:39 50.11365 14.47657 11404 ft 351 kts 281°
2026-05-06 19:39 50.11826 14.43899 12046 ft 355 kts 276°
2026-05-06 19:39 50.12145 14.40068 12760 ft 358 kts 274°
2026-05-06 19:40 50.12433 14.36199 13500 ft 361 kts 274°
2026-05-06 19:40 50.12729 14.32307 14174 ft 363 kts 274°
2026-05-06 19:40 50.13044 14.28397 14884 ft 364 kts 275°
2026-05-06 19:40 50.13375 14.24486 15565 ft 366 kts 275°
2026-05-06 19:41 50.13721 14.20541 16201 ft 369 kts 275°
2026-05-06 19:41 50.14077 14.16563 16810 ft 372 kts 275°
2026-05-06 19:41 50.14440 14.12544 17418 ft 376 kts 275°
2026-05-06 19:41 50.14842 14.08501 17984 ft 382 kts 279°
2026-05-06 19:42 50.15689 14.04516 18389 ft 393 kts 291°
2026-05-06 19:42 50.16912 14.00674 18906 ft 397 kts 293°
2026-05-06 19:42 50.18165 13.96826 19428 ft 399 kts 293°
2026-05-06 19:42 50.19426 13.92950 19936 ft 402 kts 293°
2026-05-06 19:43 50.20690 13.89036 20435 ft 405 kts 292°
2026-05-06 19:43 50.21955 13.85089 20949 ft 408 kts 293°
2026-05-06 19:43 50.23218 13.81122 21443 ft 410 kts 292°
2026-05-06 19:43 50.24490 13.77105 21918 ft 413 kts 292°
2026-05-06 19:44 50.25765 13.73067 22368 ft 416 kts 292°
2026-05-06 19:44 50.27047 13.68992 22828 ft 419 kts 292°
2026-05-06 19:44 50.28335 13.64890 23290 ft 422 kts 292°
2026-05-06 19:44 50.29630 13.60760 23668 ft 424 kts 292°
2026-05-06 19:45 50.30928 13.56613 24067 ft 425 kts 292°
2026-05-06 19:45 50.32230 13.52445 24465 ft 427 kts 292°
2026-05-06 19:45 50.33533 13.48267 24845 ft 429 kts 291°
2026-05-06 19:45 50.34842 13.44064 25208 ft 431 kts 291°
2026-05-06 19:46 50.36155 13.39840 25560 ft 433 kts 291°
2026-05-06 19:46 50.37473 13.35591 25917 ft 434 kts 291°
2026-05-06 19:46 50.38795 13.31322 26254 ft 436 kts 291°
2026-05-06 19:46 50.40119 13.27041 26584 ft 438 kts 291°
2026-05-06 19:47 50.41449 13.22735 26926 ft 440 kts 291°
2026-05-06 19:47 50.42781 13.18413 27262 ft 441 kts 291°
2026-05-06 19:47 50.44118 13.14064 27584 ft 443 kts 290°
2026-05-06 19:47 50.45440 13.09760 27910 ft 445 kts 290°
2026-05-06 19:48 50.46783 13.05378 28245 ft 446 kts 290°
2026-05-06 19:48 50.48128 13.00981 28482 ft 449 kts 290°
2026-05-06 19:48 50.49482 12.96546 28764 ft 451 kts 290°
2026-05-06 19:48 50.50833 12.92116 29175 ft 449 kts 290°
2026-05-06 19:49 50.52180 12.87698 29688 ft 446 kts 289°
2026-05-06 19:49 50.53517 12.83304 30064 ft 445 kts 289°
2026-05-06 19:49 50.54847 12.78921 30377 ft 444 kts 289°
2026-05-06 19:49 50.56173 12.74538 30705 ft 443 kts 289°
2026-05-06 19:50 50.57494 12.70166 31066 ft 441 kts 289°
2026-05-06 19:50 50.58806 12.65817 31411 ft 440 kts 289°
2026-05-06 19:50 50.60115 12.61467 31750 ft 440 kts 289°
2026-05-06 19:50 50.61424 12.57110 32015 ft 440 kts 289°
2026-05-06 19:51 50.62730 12.52755 32340 ft 439 kts 289°
2026-05-06 19:51 50.64029 12.48415 32701 ft 437 kts 289°
2026-05-06 19:51 50.65320 12.44101 33046 ft 435 kts 289°
2026-05-06 19:51 50.66607 12.39785 33345 ft 434 kts 289°
2026-05-06 19:52 50.67891 12.35475 33632 ft 434 kts 289°
2026-05-06 19:52 50.69170 12.31169 33898 ft 433 kts 289°
2026-05-06 19:52 50.70447 12.26869 34119 ft 433 kts 289°
2026-05-06 19:52 50.71720 12.22566 34301 ft 434 kts 289°
2026-05-06 19:53 50.73000 12.18235 34420 ft 436 kts 289°
2026-05-06 19:53 50.74282 12.13886 34608 ft 437 kts 289°
2026-05-06 19:53 50.75564 12.09537 34816 ft 437 kts 289°
2026-05-06 19:53 50.76844 12.05186 35009 ft 437 kts 289°
2026-05-06 19:54 50.78124 12.00826 35162 ft 438 kts 289°
2026-05-06 19:54 50.79405 11.96455 35341 ft 438 kts 289°
2026-05-06 19:54 50.80685 11.92082 35538 ft 438 kts 289°
2026-05-06 19:54 50.81946 11.87762 35702 ft 439 kts 289°
2026-05-06 19:55 50.84524 11.78901 35797 ft 443 kts 289°
2026-05-06 19:55 50.87096 11.70037 35788 ft 442 kts 289°
2026-05-06 19:56 50.89635 11.61260 35782 ft 440 kts 289°
2026-05-06 19:56 50.92193 11.52379 35772 ft 439 kts 289°
2026-05-06 19:57 50.94699 11.43643 35778 ft 438 kts 289°
2026-05-06 19:57 50.97212 11.34850 35792 ft 438 kts 289°
2026-05-06 19:58 50.99720 11.26038 35785 ft 438 kts 289°
2026-05-06 19:58 51.02225 11.17207 35804 ft 440 kts 289°
2026-05-06 19:59 51.04736 11.08323 35806 ft 441 kts 289°
2026-05-06 19:59 51.07244 10.99415 35806 ft 443 kts 289°
2026-05-06 20:00 51.09756 10.90461 35801 ft 444 kts 289°
2026-05-06 20:00 51.12265 10.81481 35801 ft 444 kts 289°
2026-05-06 20:01 51.14768 10.72490 35799 ft 444 kts 289°
2026-05-06 20:01 51.17265 10.63487 35798 ft 444 kts 289°
2026-05-06 20:02 51.19751 10.54488 35792 ft 444 kts 289°
2026-05-06 20:02 51.22230 10.45478 35804 ft 444 kts 289°
2026-05-06 20:03 51.24703 10.36462 35803 ft 443 kts 289°
2026-05-06 20:03 51.26843 10.27289 35809 ft 440 kts 284°
2026-05-06 20:04 51.28746 10.18023 35814 ft 439 kts 284°
2026-05-06 20:04 51.30650 10.08745 35820 ft 439 kts 284°
2026-05-06 20:05 51.32574 9.99471 35829 ft 440 kts 285°
2026-05-06 20:05 51.34507 9.90176 35829 ft 441 kts 285°
2026-05-06 20:06 51.36437 9.80864 35830 ft 441 kts 284°
2026-05-06 20:06 51.38361 9.71538 35829 ft 441 kts 284°
2026-05-06 20:07 51.40275 9.62208 35831 ft 441 kts 284°
2026-05-06 20:07 51.42184 9.52854 35844 ft 442 kts 285°
2026-05-06 20:08 51.44089 9.43480 35835 ft 442 kts 285°
2026-05-06 20:08 51.45986 9.34106 35831 ft 442 kts 285°
2026-05-06 20:09 51.47877 9.24711 35838 ft 442 kts 285°
2026-05-06 20:09 51.49759 9.15324 35846 ft 442 kts 285°
2026-05-06 20:10 51.51435 9.05848 35859 ft 440 kts 280°
2026-05-06 20:10 51.52751 8.96268 35868 ft 439 kts 279°
2026-05-06 20:11 51.54034 8.86686 35879 ft 439 kts 279°
2026-05-06 20:11 51.55339 8.77101 35880 ft 439 kts 279°
2026-05-06 20:12 51.56650 8.67533 35898 ft 439 kts 280°
2026-05-06 20:12 51.57959 8.57947 35891 ft 439 kts 279°
2026-05-06 20:13 51.59258 8.48361 35526 ft 443 kts 279°
2026-05-06 20:13 51.59919 8.43467 35246 ft 440 kts 279°
2026-05-06 20:13 51.60557 8.38719 34653 ft 440 kts 279°
2026-05-06 20:14 51.61202 8.33917 34137 ft 439 kts 279°
2026-05-06 20:14 51.61836 8.29173 33885 ft 429 kts 279°
2026-05-06 20:14 51.62460 8.24494 33228 ft 428 kts 279°
2026-05-06 20:14 51.63080 8.19811 32655 ft 427 kts 279°
2026-05-06 20:15 51.63695 8.15157 32221 ft 423 kts 279°
2026-05-06 20:15 51.64303 8.10545 31763 ft 419 kts 279°
2026-05-06 20:15 51.64905 8.05966 31336 ft 415 kts 279°
2026-05-06 20:15 51.65497 8.01440 30898 ft 412 kts 279°
2026-05-06 20:16 51.65888 7.98450 30607 ft 410 kts 279°
2026-05-06 20:16 51.66471 7.93975 30165 ft 408 kts 279°
2026-05-06 20:16 51.67050 7.89513 29661 ft 406 kts 279°
2026-05-06 20:16 51.67624 7.85077 29182 ft 402 kts 279°
2026-05-06 20:17 51.68188 7.80703 28756 ft 397 kts 279°
2026-05-06 20:17 51.68747 7.76362 28308 ft 393 kts 279°
2026-05-06 20:17 51.69298 7.72066 27886 ft 390 kts 280°
2026-05-06 20:17 51.69844 7.67802 27459 ft 387 kts 280°
2026-05-06 20:18 51.70383 7.63572 27024 ft 384 kts 280°
2026-05-06 20:18 51.70855 7.59351 26596 ft 381 kts 275°
2026-05-06 20:18 51.70911 7.55081 26218 ft 384 kts 265°
2026-05-06 20:18 51.70707 7.50727 25795 ft 394 kts 264°
2026-05-06 20:19 51.70474 7.46303 25346 ft 394 kts 264°
2026-05-06 20:19 51.70239 7.41921 24897 ft 391 kts 264°
2026-05-06 20:19 51.70010 7.37563 24459 ft 388 kts 264°
2026-05-06 20:19 51.69787 7.33247 24025 ft 385 kts 265°
2026-05-06 20:20 51.69569 7.28951 23596 ft 383 kts 265°
2026-05-06 20:20 51.69354 7.24687 23119 ft 380 kts 265°
2026-05-06 20:20 51.69141 7.20460 22643 ft 377 kts 265°
2026-05-06 20:20 51.68930 7.16269 22222 ft 373 kts 265°
2026-05-06 20:21 51.68721 7.12142 21791 ft 365 kts 265°
2026-05-06 20:21 51.68516 7.08125 21379 ft 356 kts 265°
2026-05-06 20:21 51.68314 7.04192 20976 ft 348 kts 265°
2026-05-06 20:21 51.68116 7.00345 20578 ft 341 kts 265°
2026-05-06 20:22 51.67920 6.96578 20194 ft 334 kts 265°
2026-05-06 20:22 51.67726 6.92878 19817 ft 328 kts 265°
2026-05-06 20:22 51.67535 6.89242 19438 ft 323 kts 265°
2026-05-06 20:22 51.67345 6.85661 19093 ft 321 kts 265°
2026-05-06 20:23 51.67154 6.82079 18737 ft 320 kts 265°
2026-05-06 20:23 51.66963 6.78514 18379 ft 319 kts 265°
2026-05-06 20:23 51.66771 6.74951 17974 ft 319 kts 265°
2026-05-06 20:23 51.66579 6.71415 17560 ft 314 kts 265°
2026-05-06 20:24 51.66390 6.67940 17184 ft 309 kts 265°
2026-05-06 20:24 51.66202 6.64527 16823 ft 303 kts 265°
2026-05-06 20:24 51.66017 6.61169 16469 ft 298 kts 265°
2026-05-06 20:24 51.65835 6.57880 16133 ft 292 kts 266°
2026-05-06 20:25 51.65655 6.54644 15812 ft 289 kts 266°
2026-05-06 20:25 51.65476 6.51432 15492 ft 288 kts 266°
2026-05-06 20:25 51.65297 6.48256 15170 ft 288 kts 266°
2026-05-06 20:25 51.65117 6.45050 14836 ft 288 kts 266°
2026-05-06 20:26 51.64934 6.41837 14515 ft 288 kts 266°
2026-05-06 20:26 51.64751 6.38621 14185 ft 289 kts 266°
2026-05-06 20:26 51.64567 6.35401 13855 ft 289 kts 266°
2026-05-06 20:26 51.64381 6.32174 13493 ft 290 kts 266°
2026-05-06 20:27 51.64195 6.28948 13127 ft 290 kts 266°
2026-05-06 20:27 51.64008 6.25722 12777 ft 289 kts 266°
2026-05-06 20:27 51.63822 6.22528 12431 ft 284 kts 266°
2026-05-06 20:27 51.63638 6.19389 12101 ft 280 kts 266°
2026-05-06 20:28 51.63455 6.16295 11778 ft 275 kts 266°
2026-05-06 20:28 51.63274 6.13253 11455 ft 271 kts 266°
2026-05-06 20:28 51.63067 6.10255 11151 ft 269 kts 260°
2026-05-06 20:28 51.62540 6.07383 10852 ft 267 kts 251°
2026-05-06 20:29 51.61864 6.04614 10545 ft 266 kts 243°
2026-05-06 20:29 51.60654 6.02384 10349 ft 265 kts 219°
2026-05-06 20:29 51.59204 6.00593 10248 ft 262 kts 219°
2026-05-06 20:29 51.57752 5.98799 10147 ft 266 kts 219°
2026-05-06 20:30 51.56276 5.96967 10044 ft 270 kts 219°
2026-05-06 20:30 51.53272 5.93218 9572 ft 277 kts 219°
2026-05-06 20:30 51.51757 5.91326 9277 ft 276 kts 219°
2026-05-06 20:31 51.50244 5.89420 8976 ft 276 kts 221°
2026-05-06 20:31 51.48867 5.87293 8687 ft 275 kts 227°
2026-05-06 20:31 51.47545 5.85083 8389 ft 275 kts 227°
2026-05-06 20:31 51.46213 5.82876 8111 ft 275 kts 227°
2026-05-06 20:32 51.44879 5.80689 7820 ft 275 kts 226°
2026-05-06 20:32 51.43536 5.78502 7527 ft 275 kts 226°
2026-05-06 20:32 51.42189 5.76322 7239 ft 275 kts 226°
2026-05-06 20:32 51.40840 5.74142 6957 ft 275 kts 226°
2026-05-06 20:33 51.39503 5.71985 6660 ft 271 kts 226°
2026-05-06 20:33 51.38187 5.69863 6393 ft 267 kts 226°
2026-05-06 20:33 51.36887 5.67771 6109 ft 263 kts 226°
2026-05-06 20:33 51.35606 5.65713 5825 ft 259 kts 226°
2026-05-06 20:34 51.34358 5.63664 5542 ft 255 kts 232°
2026-05-06 20:34 51.33598 5.61172 5298 ft 247 kts 256°
2026-05-06 20:34 51.33113 5.58542 5050 ft 247 kts 255°
2026-05-06 20:34 51.32610 5.55923 4839 ft 245 kts 255°
2026-05-06 20:35 51.32111 5.53354 4734 ft 239 kts 254°
2026-05-06 20:35 51.31619 5.50838 4620 ft 237 kts 254°
2026-05-06 20:35 51.31124 5.48312 4524 ft 239 kts 254°
2026-05-06 20:35 51.30623 5.45764 4430 ft 242 kts 254°
2026-05-06 20:36 51.30112 5.43171 4246 ft 248 kts 254°
2026-05-06 20:36 51.29589 5.40521 4006 ft 249 kts 254°
2026-05-06 20:36 51.29073 5.37917 3810 ft 242 kts 255°
2026-05-06 20:36 51.28864 5.35357 3619 ft 227 kts 285°
2026-05-06 20:37 51.29426 5.33109 3465 ft 212 kts 305°
2026-05-06 20:37 51.30214 5.31165 3249 ft 204 kts 309°
2026-05-06 20:37 51.31001 5.29326 3042 ft 198 kts 310°
2026-05-06 20:37 51.31754 5.27559 2846 ft 192 kts 310°
2026-05-06 20:38 51.32555 5.25917 2613 ft 182 kts 328°
2026-05-06 20:38 51.33674 5.25373 2487 ft 167 kts 12°
2026-05-06 20:38 51.34680 5.26169 2401 ft 165 kts 32°
2026-05-06 20:38 51.35684 5.27002 2188 ft 157 kts 31°
2026-05-06 20:39 51.36578 5.27954 1964 ft 152 kts 36°
2026-05-06 20:39 51.37445 5.28939 1767 ft 154 kts 36°
2026-05-06 20:39 51.38322 5.29930 1547 ft 155 kts 35°
2026-05-06 20:39 51.39207 5.30925 1337 ft 156 kts 35°
2026-05-06 20:40 51.40090 5.31918 1147 ft 151 kts 35°
2026-05-06 20:40 51.40935 5.32870 903 ft 148 kts 34°
2026-05-06 20:40 51.41785 5.33825 688 ft 150 kts 34°
2026-05-06 20:40 51.42644 5.34789 467 ft 151 kts 34°
2026-05-06 20:41 51.43501 5.35761 275 ft 151 kts 35°
2026-05-06 20:41 51.44364 5.36725 75 ft 151 kts 35°
2026-05-06 20:41 51.45146 5.37600 74 ft 118 kts 35°
2026-05-06 20:41 51.45608 5.38117 76 ft 50 kts 35°
2026-05-06 20:42 51.45833 5.38369 76 ft 29 kts 34°
2026-05-06 20:42 51.45894 5.38437 68 ft 7 kts 34°
2026-05-06 20:42 51.45915 5.38474 70 ft 3 kts 76°
2026-05-06 20:42 51.45909 5.38509 71 ft 4 kts 116°
2026-05-06 20:43 51.45879 5.38581 70 ft 11 kts 126°
2026-05-06 20:43 51.45835 5.38678 70 ft 10 kts 125°
2026-05-06 20:43 51.45797 5.38765 72 ft 9 kts 125°
2026-05-06 20:43 51.45790 5.38831 74 ft 5 kts 82°
2026-05-06 20:44 51.45776 5.38884 68 ft 3 kts 124°
2026-05-06 20:44 51.45764 5.38913 65 ft 3 kts 125°
2026-05-06 20:44 51.45756 5.38929 66 ft 1 kts 125°
2026-05-06 20:44 51.45753 5.38937 72 ft 0 kts 125°
2026-05-06 20:45 51.45752 5.38940 72 ft 0 kts 125°